When you browse on this site, cookies collect data to enhance your experience and personalize the content and advertising you see.
Visit our Privacy Policy to learn more. By continuing to use the site, you agree to this use of cookies and data.
  • In Austria
  • List of Countries
  • For 7 days
  • Water Temperature
  • Satellite Maps
  • Weather Map
  • News
  • Weather Widgets
  • user-avatar
    Login

    Hourly Weather Zemsko

    Today, 20 February, Wednesday

    Time Temperature Precipitation Wind Pressure Humidity
    00:00 +3°C° 0 mm 5 mps 756 mmHg 84%
    01:00 +4°C° 0 mm 4 mps 756 mmHg 88%
    02:00 +3°C° 0 mm 4 mps 756 mmHg 88%
    03:00 +3°C° 0 mm 4 mps 756 mmHg 89%
    04:00 +2°C° 0 mm 5 mps 757 mmHg 89%
    05:00 +2°C° 0 mm 5 mps 757 mmHg 88%
    06:00 +2°C° 0 mm 5 mps 757 mmHg 86%
    07:00 +4°C° 0 mm 4 mps 757 mmHg 85%
    08:00 +4°C° 0 mm 4 mps 758 mmHg 82%
    09:00 +5°C° 0 mm 5 mps 758 mmHg 79%
    10:00 +5°C° 0 mm 5 mps 759 mmHg 76%
    11:00 +6°C° 0 mm 5 mps 759 mmHg 72%
    12:00 +7°C° 0 mm 5 mps 759 mmHg 69%
    13:00 +7°C° 0 mm 5 mps 759 mmHg 66%
    14:00 +7°C° 0.1 mm 4 mps 760 mmHg 66%
    15:00 +7°C° 0.1 mm 4 mps 760 mmHg 66%
    16:00 +8°C° 0.1 mm 3 mps 760 mmHg 66%
    17:00 +8°C° 0.1 mm 3 mps 760 mmHg 70%
    18:00 +7°C° 0.1 mm 3 mps 760 mmHg 74%
    19:00 +7°C° 0.1 mm 2 mps 761 mmHg 78%
    20:00 +7°C° 0 mm 2 mps 761 mmHg 80%
    21:00 +6°C° 0 mm 2 mps 761 mmHg 82%
    22:00 +5°C° 0 mm 3 mps 762 mmHg 84%
    23:00 +6°C° 0 mm 2 mps 762 mmHg 85%

    Tomorrow, 21 February, Thursday

    Time Temperature Precipitation Wind Pressure Humidity
    00:00 +6°C° 0 mm 2 mps 762 mmHg 87%
    01:00 +5°C° 0 mm 2 mps 762 mmHg 88%
    02:00 +4°C° 0 mm 3 mps 762 mmHg 87%
    03:00 +4°C° 0 mm 3 mps 762 mmHg 85%
    04:00 +4°C° 0 mm 3 mps 761 mmHg 84%
    05:00 +4°C° 0 mm 3 mps 761 mmHg 83%
    06:00 +4°C° 0 mm 4 mps 761 mmHg 82%
    07:00 +4°C° 0 mm 4 mps 761 mmHg 81%
    08:00 +5°C° 0 mm 4 mps 761 mmHg 80%
    09:00 +5°C° 0 mm 4 mps 761 mmHg 78%
    10:00 +6°C° 0 mm 5 mps 761 mmHg 77%
    11:00 +6°C° 0.3 mm 5 mps 761 mmHg 78%
    12:00 +6°C° 0.3 mm 5 mps 761 mmHg 79%
    13:00 +5°C° 0.3 mm 6 mps 760 mmHg 79%
    14:00 +7°C° 0.4 mm 6 mps 760 mmHg 80%
    15:00 +7°C° 0.4 mm 5 mps 760 mmHg 81%
    16:00 +7°C° 0.4 mm 5 mps 760 mmHg 81%
    17:00 +7°C° 0.4 mm 5 mps 760 mmHg 84%
    18:00 +7°C° 0.4 mm 5 mps 760 mmHg 86%
    19:00 +7°C° 0.4 mm 5 mps 760 mmHg 88%
    20:00 +7°C° 0.5 mm 5 mps 760 mmHg 88%
    21:00 +7°C° 0.5 mm 5 mps 760 mmHg 89%
    22:00 +7°C° 0.5 mm 5 mps 760 mmHg 90%
    23:00 +7°C° 0.4 mm 5 mps 760 mmHg 90%

    Day after tomorrow, 22 February, Friday

    Time Temperature Precipitation Wind Pressure Humidity
    00:00 +7°C° 0.4 mm 5 mps 760 mmHg 90%
    01:00 +7°C° 0.4 mm 5 mps 761 mmHg 90%
    02:00 +7°C° 0.1 mm 5 mps 761 mmHg 90%
    03:00 +6°C° 0.1 mm 5 mps 762 mmHg 90%
    04:00 +6°C° 0.1 mm 5 mps 763 mmHg 89%
    05:00 +5°C° 0 mm 5 mps 764 mmHg 85%
    06:00 +3°C° 0 mm 5 mps 765 mmHg 81%
    07:00 +1°C° 0 mm 5 mps 766 mmHg 77%
    08:00 +1°C° 0 mm 5 mps 767 mmHg 72%
    09:00 +1°C° 0 mm 5 mps 768 mmHg 67%
    10:00 0°C° 0 mm 4 mps 769 mmHg 62%
    11:00 +1°C° 0 mm 4 mps 770 mmHg 56%
    12:00 +1°C° 0 mm 4 mps 771 mmHg 50%
    13:00 +3°C° 0 mm 4 mps 771 mmHg 45%
    14:00 +3°C° 0 mm 3 mps 772 mmHg 44%
    15:00 +3°C° 0 mm 3 mps 772 mmHg 44%
    16:00 +2°C° 0 mm 3 mps 773 mmHg 43%
    17:00 +1°C° 0 mm 3 mps 773 mmHg 48%
    18:00 +1°C° 0 mm 2 mps 774 mmHg 53%
    19:00 -1°C° 0 mm 2 mps 774 mmHg 58%
    20:00 -1°C° 0 mm 2 mps 775 mmHg 57%
    21:00 -2°C° 0 mm 2 mps 775 mmHg 57%
    22:00 -2°C° 0 mm 2 mps 776 mmHg 57%
    23:00 -2°C° 0 mm 2 mps 776 mmHg 54%

    23 February, Saturday

    Time Temperature Precipitation Wind Pressure Humidity
    00:00 -3°C° 0 mm 2 mps 776 mmHg 52%
    01:00 -3°C° 0 mm 2 mps 776 mmHg 50%
    02:00 -3°C° 0 mm 2 mps 776 mmHg 49%
    03:00 -3°C° 0 mm 2 mps 776 mmHg 48%
    04:00 -1°C° 0 mm 1 mps 776 mmHg 47%
    05:00 -1°C° 0 mm 1 mps 776 mmHg 47%
    06:00 -1°C° 0 mm 1 mps 776 mmHg 47%
    07:00 -1°C° 0 mm 1 mps 776 mmHg 47%
    08:00 0°C° 0 mm 1 mps 776 mmHg 43%
    09:00 -2°C° 0 mm 2 mps 776 mmHg 39%
    10:00 -1°C° 0 mm 2 mps 776 mmHg 36%
    11:00 +1°C° 0 mm 2 mps 776 mmHg 33%
    12:00 +2°C° 0 mm 2 mps 776 mmHg 31%
    13:00 +4°C° 0 mm 1 mps 776 mmHg 28%
    14:00 +4°C° 0 mm 1 mps 776 mmHg 28%
    15:00 +4°C° 0 mm 1 mps 775 mmHg 28%
    16:00 +3°C° 0 mm 0 mps 775 mmHg 28%
    17:00 +2°C° 0 mm 0 mps 775 mmHg 31%
    18:00 +2°C° 0 mm 1 mps 775 mmHg 34%
    19:00 +1°C° 0 mm 1 mps 775 mmHg 36%
    20:00 +1°C° 0 mm 1 mps 775 mmHg 37%
    21:00 +1°C° 0 mm 1 mps 775 mmHg 37%
    22:00 +1°C° 0 mm 1 mps 775 mmHg 37%
    23:00 +1°C° 0 mm 1 mps 775 mmHg 37%

    24 February, Sunday

    Time Temperature Precipitation Wind Pressure Humidity
    00:00 +1°C° 0 mm 1 mps 774 mmHg 37%
    01:00 0°C° 0 mm 1 mps 774 mmHg 38%
    02:00 0°C° 0 mm 1 mps 774 mmHg 38%
    03:00 0°C° 0 mm 1 mps 774 mmHg 38%
    04:00 0°C° 0 mm 1 mps 773 mmHg 38%
    05:00 0°C° 0 mm 1 mps 773 mmHg 38%
    06:00 0°C° 0 mm 1 mps 773 mmHg 38%
    07:00 0°C° 0 mm 1 mps 773 mmHg 38%
    08:00 +2°C° 0 mm 1 mps 773 mmHg 36%
    09:00 +3°C° 0 mm 1 mps 773 mmHg 34%
    10:00 +4°C° 0 mm 1 mps 773 mmHg 32%
    11:00 +4°C° 0 mm 2 mps 773 mmHg 33%
    12:00 +5°C° 0 mm 2 mps 773 mmHg 34%
    13:00 +6°C° 0 mm 2 mps 773 mmHg 34%
    14:00 +6°C° 0 mm 2 mps 772 mmHg 39%
    15:00 +6°C° 0 mm 2 mps 772 mmHg 44%
    16:00 +7°C° 0 mm 1 mps 772 mmHg 48%
    17:00 +6°C° 0 mm 1 mps 772 mmHg 53%
    18:00 +5°C° 0 mm 1 mps 772 mmHg 57%
    19:00 +3°C° 0 mm 1 mps 772 mmHg 62%
    20:00 +3°C° 0 mm 1 mps 772 mmHg 64%
    21:00 +2°C° 0 mm 2 mps 772 mmHg 66%
    22:00 +2°C° 0 mm 2 mps 772 mmHg 68%
    23:00 +2°C° 0 mm 2 mps 772 mmHg 70%

    25 February, Monday

    Time Temperature Precipitation Wind Pressure Humidity
    00:00 +2°C° 0 mm 2 mps 772 mmHg 71%
    01:00 +2°C° 0 mm 2 mps 772 mmHg 73%
    02:00 +2°C° 0 mm 2 mps 772 mmHg 75%
    03:00 +2°C° 0 mm 2 mps 772 mmHg 76%
    04:00 +2°C° 0 mm 2 mps 772 mmHg 78%
    05:00 +2°C° 0 mm 2 mps 772 mmHg 80%
    06:00 +1°C° 0 mm 2 mps 772 mmHg 83%
    07:00 +1°C° 0 mm 2 mps 772 mmHg 85%
    08:00 +3°C° 0 mm 2 mps 772 mmHg 81%
    09:00 +4°C° 0 mm 2 mps 773 mmHg 77%
    10:00 +4°C° 0 mm 3 mps 773 mmHg 73%
    11:00 +7°C° 0 mm 3 mps 773 mmHg 69%
    12:00 +8°C° 0 mm 2 mps 773 mmHg 65%
    13:00 +9°C° 0 mm 2 mps 773 mmHg 61%
    14:00 +10°C° 0 mm 2 mps 772 mmHg 60%
    15:00 +10°C° 0 mm 2 mps 772 mmHg 59%
    16:00 +10°C° 0 mm 2 mps 772 mmHg 58%
    17:00 +9°C° 0 mm 1 mps 773 mmHg 63%
    18:00 +8°C° 0 mm 1 mps 773 mmHg 69%
    19:00 +6°C° 0 mm 1 mps 773 mmHg 74%
    20:00 +6°C° 0 mm 1 mps 773 mmHg 76%
    21:00 +5°C° 0 mm 1 mps 773 mmHg 78%
    22:00 +3°C° 0 mm 0 mps 773 mmHg 80%
    23:00 +3°C° 0 mm 0 mps 773 mmHg 80%
    Show more